Regional Weather Roundup
Issued by NWS Little Rock, AR

Home | Current Version | Previous Version | Text Only | Print | Product List | Glossary On
Versions: 1 2 3 4 5 6 7 8 9 10 11 12 13 14 15 16 17 18 19 20 21 22 23 24 25 26 27 28 29 30 31 32 33 34 35 36 37 38 39 40 41 42 43 44 45 46 47 48 49 50
000
ASUS44 KLZK 311105
RWRLZK

WEATHER ROUNDUP FOR ARKANSAS
NATIONAL WEATHER SERVICE LITTLE ROCK AR
600 AM CDT FRI JUL 31 2015

NOTE: "FAIR" INDICATES FEW OR NO CLOUDS BELOW 12,000 FEET WITH NO
SIGNIFICANT WEATHER AND/OR OBSTRUCTIONS TO VISIBILITY.

ARZ001-003-010-029-311200-
NORTHWEST ARKANSAS

CITY           SKY/WX    TMP DP  RH WIND       PRES   REMARKS
FAYETTEVILLE   MOCLDY    66  65  96 CALM      30.17R
FORT SMITH     CLEAR     72  67  84 NE5       30.12R
HARRISON       PTCLDY    63  62  97 N3        30.18R
BENTONVILLE    MOCLDY    70  63  78 CALM      30.17R
ROGERS         MOCLDY    71  65  81 E5        30.18R
SILOAM SPGS    CLOUDY    70  61  73 CALM      30.15R
HIGHFILL       CLOUDY    71  66  84 CALM      30.16S
SPRINGDALE     MOCLDY    68  64  88 E3        30.19
$$

ARZ004-005-016-311200-
NORTH CENTRAL ARKANSAS

CITY           SKY/WX    TMP DP  RH WIND       PRES   REMARKS
BATESVILLE     CLEAR     66  64  94 W3        30.13R
FLIPPIN        PTCLDY    64  63  94 CALM      30.14S
MTN HOME       CLEAR     65  64  97 CALM      30.15S
$$

ARZ040-041-311200-
WEST CENTRAL ARKANSAS

CITY           SKY/WX    TMP DP  RH WIND       PRES   REMARKS
MENA           PTCLDY    68  66  94 CALM      30.14S
MOUNT IDA      FOG       67  65  93 CALM      30.10S VSB 1/2
$$

ARZ009-017-025-026-028-311200-
NORTHEAST ARKANSAS

CITY           SKY/WX    TMP DP  RH WIND       PRES   REMARKS
JONESBORO        N/A     70  63  78 N6        30.10S
NEWPORT        CLEAR     67  65  93 NW5       30.12R
WALNUT RIDGE   CLEAR     66  63  88 NW5       30.10S
BLYTHEVILLE    CLEAR     67  66  97 NW5       30.10R
$$

ARZ022-023-033-042-044-311200-
CENTRAL ARKANSAS

CITY           SKY/WX    TMP DP  RH WIND       PRES   REMARKS
LITTLE ROCK    MOCLDY    72  61  68 N5        30.10S
N LITTLE ROCK    N/A     72  63  73 N7        30.10S
JACKSONVILLE   PTCLDY    66  63  87 W2        30.10S
SEARCY         CLEAR     70  63  78 N3        30.12R
HOT SPRINGS    CLEAR     69  63  81 CALM      30.10F
RUSSELLVILLE   CLEAR     67  65  93 CALM      30.12S
CLINTON        FAIR      64  64 100 CALM      30.15S
$$

ARZ036-311200-
EAST ARKANSAS

CITY           SKY/WX    TMP DP  RH WIND       PRES   REMARKS
WEST MEMPHIS   CLEAR     68  67  96 N5        30.08S
$$

ARZ050-053-066-070-073-311200-
SOUTHWEST ARKANSAS

CITY           SKY/WX    TMP DP  RH WIND       PRES   REMARKS
ARKADELPHIA    FAIR      67  66  96 CALM      30.09S
CAMDEN         CLEAR     64  61  88 CALM      30.08R
TEXARKANA      PTCLDY    71  67  87 NE3       30.09R
EL DORADO      PTCLDY    68  64  87 N7        30.07F
DE QUEEN       FOG       69  69 100 CALM      30.08S VSB 1
$$

ARZ056-057-069-311200-
SOUTHEAST ARKANSAS

CITY           SKY/WX    TMP DP  RH WIND       PRES   REMARKS
PINE BLUFF     PTCLDY    70  65  84 N6        30.08S
STUTTGART      PTCLDY    68  63  83 MISG      30.08S
MONTICELLO     CLEAR     71  66  84 NE6       30.06S

$$





USA.gov is the U.S. government's official web portal to all federal, state and local government web resources and services.